Location: Unspecified
(50.7693°N, 0.0000°E)
Time: 15:17:49
(UTC+00:00)

Vanguard 1 Rocket - Pass Details

Date: 20 June 2019
Orbit: 652 x 4224 km, 34.3° (Epoch: 19 August)

Event Time Altitude Azimuth Distance (km) Brightness Sun altitude
Rises 19:57:29 0° 250° (WSW) 6,112 12.1 1.6°
Reaches altitude 10° 20:03:02 10° 240° (WSW) 4,426 11.2 0.9°
Maximum altitude 20:11:10 25° 192° (SSW) 2,441 9.4 -0.2°
Drops below altitude 10° 20:16:25 10° 139° (SE) 2,751 9.2 -0.8°
Enters shadow 20:18:39 - 126° (SE) 3,329 9.6 -1.1°
Sets 20:18:58 0° 124° (SE) 3,427 - -1.1°
